Regional Weather Roundup
Issued by NWS

Home | Current Version | Previous Version | Text Only | Print | Product List | Glossary On
Versions: 1 2 3 4 5 6 7 8 9 10 11 12 13 14 15 16 17 18 19 20 21 22 23 24 25 26 27 28 29 30 31 32 33 34 35 36 37 38 39 40 41 42 43 44 45 46 47 48 49 50
000
ASUS43 KIND 290009
RWRIN

WEATHER ROUNDUP FOR INDIANA
NATIONAL WEATHER SERVICE INDIANAPOLIS IN
700 PM EST FRI NOV 28 2014

NOTE: "FAIR" INDICATES FEW OR NO CLOUDS BELOW 12,000 FEET WITH NO
SIGNIFICANT WEATHER AND/OR OBSTRUCTIONS TO VISIBILITY.

* - STATION DOES NOT REPORT WEATHER SUCH AS PRECIPITATION OR FOG.

+ - STATION NOT QUALITY CONTROLLED BY THE NATIONAL WEATHER SERVICE.
    USE DATA WITH CAUTION...ESPECIALLY DEWPOINT AND RELATIVE
    HUMIDITY OBSERVATIONS.

INZ001>003-010>013-019-020-290100-
NORTHWEST INDIANA

CITY           SKY/WX    TMP DP  RH WIND       PRES   REMARKS
GARY /AIRPORT/ CLOUDY    32  25  74 SE14      30.01F WCI  22
KNOX *+        CLOUDY    30  21  70 S13       30.04F WCI  20
LA PORTE +     CLOUDY    31  23  71 S7        30.04F WCI  24
6HR MIN TEMP:  30; 6HR MAX TEMP:  32;

MICHIGAN CITY+ CLOUDY    30  19  64 S10G18    30.03S WCI  21
MONTICELLO +   PTCLDY    32  23  71 S6        30.05S WCI  26
RENSSELAER +   MOCLDY    32  28  86 SE12      30.04S WCI  23
VALPARAISO     CLOUDY    30  21  69 SE13      30.02F WCI  20
6HR MIN TEMP:  28; 6HR MAX TEMP:  30;


$$

LMZ046-743>745-290100-
SOUTHERN LAKE MICHIGAN

STATION/POSITION TIME  TEMP WIND        PRES
                       AIR  DIR/SP/G
                 (UTC) (F)  (DEG/KT/KT) (MB)
MICHIGAN CITY    0000   30  130/ 14/ 18   N/A

$$

INZ004-005-014>016-021>024-290100-
NORTH CENTRAL INDIANA

CITY           SKY/WX    TMP DP  RH WIND       PRES   REMARKS
GOSHEN         MOCLDY    29  19  66 S14       30.06S WCI  18
6HR MIN TEMP:  25; 6HR MAX TEMP:  29;

LOGANSPORT +   MOCLDY    30  23  74 S12       30.07F WCI  21
PERU/GRISSOM   MOCLDY    30  25  79 S13       30.06S WCI  20
6HR MIN TEMP:  30; 6HR MAX TEMP:  31;

ROCHESTER +    CLOUDY    32  25  74 S10       30.07S WCI  24
SOUTH BEND     MOCLDY    29  20  69 S10       30.06R WCI  20
6HR MIN TEMP:  26; 6HR MAX TEMP:  29;

WARSAW +       CLOUDY    30  19  64 S5        30.07S WCI  25

$$

INZ006>009-017-018-025>027-290100-
NORTHEAST INDIANA

CITY           SKY/WX    TMP DP  RH WIND       PRES   REMARKS
ANGOLA *+      CLOUDY    27  19  74 S9        30.06F WCI  17
AUBURN +       MOCLDY    30  19  64 SE5       30.09F WCI  25
FORT WAYNE     CLOUDY    29  21  72 S8        30.11R WCI  21
6HR MIN TEMP:  28; 6HR MAX TEMP:  31; 6HR PCP: TRACE;

HUNTINGTON +   CLOUDY    30  20  65 S7        30.09S WCI  23
6HR MIN TEMP:  28; 6HR MAX TEMP:  31;


$$

INZ028-029-035-036-043>045-051>053-290100-
WEST CENTRAL INDIANA

CITY           SKY/WX    TMP DP  RH WIND       PRES   REMARKS
GREENCASTLE +  MOCLDY    32  27  80 S12       30.06S WCI  23
LAFAYETTE      PTCLDY    32  24  72 SE8       30.06R WCI  25
6HR MIN TEMP:  29; 6HR MAX TEMP:  33;

TERRE HAUTE    MOCLDY    36  26  67 S14       30.06S
6HR MIN TEMP:  34; 6HR MAX TEMP:  38;


$$

INZ030>032-037>040-046>048-054>057-064-065-290100-
CENTRAL INDIANA

CITY           SKY/WX    TMP DP  RH WIND       PRES   REMARKS
CP ATTERBURY + CLOUDY    34  21  60 S12G20    30.11F WCI  25
COLUMBUS       CLEAR     32  21  64 S16       30.11F WCI  21
FRANKFORT +    PTCLDY    32  25  75 SE8       30.07R WCI  25
INDIANAPOLIS   CLOUDY    32  22  66 S13       30.07S WCI  22
6HR MIN TEMP:  29; 6HR MAX TEMP:  34;

-EAGLE CREEK   PTCLDY    33  22  63 S10G18    30.06F WCI  25
6HR MIN TEMP:  28; 6HR MAX TEMP:  34;

KOKOMO *+      MOCLDY    30  21  69 S13       30.08R WCI  20
MARION +         N/A     30  20  65 S10       30.10R WCI  21
MT COMFORT *+  PTCLDY    32  16  51 S12G17    30.08F WCI  23
SHELBYVILLE    MOCLDY    34  22  61 S14       30.09F WCI  25
6HR MIN TEMP:  31; 6HR MAX TEMP:  34;

ZIONSVILLE +   PTCLDY    32  22  65 S12G17    30.07R WCI  23
6HR MIN TEMP:  30; 6HR MAX TEMP:  33;


$$

INZ033-034-041-042-049-050-058-059-290100-
EAST CENTRAL INDIANA

CITY           SKY/WX    TMP DP  RH WIND       PRES   REMARKS
MUNCIE         MOCLDY    31  18  58 S13       30.09R WCI  21
6HR MIN TEMP:  29; 6HR MAX TEMP:  32;


$$

INZ060-061-067>069-081>083-085>088-290100-
SOUTHWEST INDIANA

CITY           SKY/WX    TMP DP  RH WIND       PRES   REMARKS
EVANSVILLE     PTCLDY    40  27  59 SE6       30.10F
6HR MIN TEMP:  39; 6HR MAX TEMP:  44;

HUNTINGBURG *+ PTCLDY    37  23  56 SE8       30.12S
6HR MIN TEMP:  36; 6HR MAX TEMP:  41;

WASHINGTON +   MOCLDY    37  28  72 S9        30.08F
6HR MIN TEMP:  35; 6HR MAX TEMP:  39;


$$

INZ062-063-066-070>080-084-089>092-290100-
SOUTH CENTRAL AND SOUTHEAST INDIANA

CITY           SKY/WX    TMP DP  RH WIND       PRES   REMARKS
BLOOMINGTON    PTCLDY    35  25  66 S8        30.08S WCI  29
6HR MIN TEMP:  31; 6HR MAX TEMP:  37;


$$




USA.gov is the U.S. government's official web portal to all federal, state and local government web resources and services.